Theta_e
314 315 316 315 316 316 317 318 319 318 317 317 317 317 317 318 320 321 325 329 330 332 334 331 331 327 331 328 323 331 337 344 354 355 354 353 352 351 351 350 351 351 354 353
314 315 316 316 316 316 317 318 320 320 319 318 318 317 318 318 319 321 323 326 327 330 331 333 332 332 331 326 322 327 334 341 350 352 351 346 345 345 346 346 354 352 352 352
315 315 315 316 317 317 317 319 319 320 319 321 319 319 319 318 318 320 322 323 323 326 329 333 334 331 330 325 327 326 326 343 348 349 348 350 352 348 348 347 350 353 353 352
315 316 316 316 317 317 318 318 318 319 321 319 320 320 319 319 319 320 321 322 324 329 329 333 335 334 328 327 327 328 335 342 352 349 353 353 350 346 344 345 345 351 353 354
314 315 316 316 316 316 317 319 319 319 320 321 321 322 323 322 320 321 323 325 327 325 328 334 334 330 323 325 324 325 345 337 341 352 350 347 349 343 344 344 347 349 347 342
315 315 316 318 316 316 318 319 320 320 320 320 321 324 324 325 326 323 324 324 324 323 332 333 325 325 324 324 327 336 343 345 348 348 349 348 345 342 338 336 334 332 331 332
316 316 318 318 318 317 319 321 322 321 321 320 320 323 327 329 328 326 327 328 327 325 326 327 327 325 328 327 330 335 339 342 343 341 340 339 340 338 338 336 329 329 326 325
321 320 319 318 318 320 320 321 321 323 321 319 319 322 326 326 324 328 328 328 327 327 327 328 329 330 330 331 331 333 334 331 331 332 331 330 331 329 329 332 332 331 329 328
322 321 318 318 319 320 322 321 321 322 326 325 322 325 326 326 327 328 328 328 328 328 327 327 326 326 326 326 326 326 325 324 325 325 325 324 324 324 325 324 325 323 323 325
323 324 318 318 319 319 320 323 324 325 331 333 327 326 326 328 328 328 329 329 328 326 325 324 323 322 321 321 320 320 321 320 320 319 319 319 320 320 320 320 321 321 322 322
322 324 322 318 318 319 320 324 326 327 326 329 330 331 329 329 328 329 329 327 326 325 323 322 322 320 319 319 319 318 317 317 317 317 316 317 317 317 317 318 318 318 318 319
322 325 327 321 318 318 320 323 326 336 332 329 331 331 326 329 327 328 328 326 325 323 322 321 320 319 318 318 317 316 315 315 315 314 314 314 315 315 314 315 315 316 316 316
326 325 332 328 329 325 324 324 324 329 331 329 332 333 327 330 328 327 326 324 323 322 322 321 320 319 318 316 315 315 314 313 313 312 313 312 313 313 314 314 315 315 315 314
326 325 329 332 327 327 325 324 324 327 330 331 330 329 328 327 326 325 325 324 323 322 321 320 320 319 317 315 314 313 313 311 311 311 311 311 312 312 312 313 313 313 313 314
325 328 327 329 326 327 327 323 325 323 322 324 323 328 327 327 325 325 324 323 323 322 320 319 318 318 316 314 313 312 311 310 310 310 310 310 310 311 311 311 312 311 310 310
327 328 327 328 324 326 328 325 326 326 324 323 322 327 327 325 325 325 323 322 322 320 318 317 316 316 314 313 312 311 310 309 309 309 309 309 310 310 310 309 308 307 307 307
331 328 328 328 326 324 325 325 324 323 321 321 321 321 323 323 322 322 320 320 319 318 316 316 315 314 312 311 310 309 308 308 308 308 309 309 309 308 306 306 305 305 305 304
327 328 325 326 324 327 323 319 317 319 319 319 321 321 321 320 320 319 318 318 317 316 315 314 312 310 309 308 308 307 307 306 307 308 308 307 306 305 304 304 303 303 303 303
326 326 328 327 322 322 321 319 316 318 320 319 320 319 319 319 318 318 315 314 313 312 311 310 308 307 307 307 307 306 305 306 306 306 305 305 304 304 303 303 303 302 302 303
323 323 324 322 323 320 322 321 321 321 323 320 319 319 318 318 320 318 314 312 310 309 308 307 306 305 306 306 304 303 303 303 303 303 301 301 303 304 303 303 303 303 303 304
321 322 324 322 323 325 321 320 319 324 325 318 317 317 317 318 315 313 310 309 308 307 305 304 304 303 303 301 300 300 301 301 300 299 301 302 303 303 303 303 302 305 305 304
320 321 321 321 322 326 319 318 322 320 318 317 315 314 313 311 310 309 308 307 306 304 302 301 301 300 299 299 298 298 297 296 298 300 300 301 302 302 301 303 305 305 306 307
320 319 322 320 325 322 321 320 317 317 315 314 312 309 308 308 307 306 306 305 303 300 298 298 297 297 297 296 294 294 295 297 298 298 300 301 301 302 303 305 305 304 306 307
318 317 321 322 319 318 317 316 314 313 311 309 307 307 306 306 304 304 303 301 299 297 296 295 295 295 293 292 293 293 294 295 297 298 299 299 300 302 304 305 304 304 304 305
318 318 319 318 317 315 315 313 311 309 307 306 305 305 304 304 303 302 300 297 296 295 294 293 292 291 291 291 292 293 293 294 295 296 297 298 301 302 304 304 303 304 304 305
318 320 321 321 317 317 314 311 309 307 306 305 305 304 303 303 302 300 298 295 294 293 291 290 290 290 290 290 291 291 290 291 292 294 295 295 298 301 303 304 304 305 306 308
Wind_Speed
22 17 20 24 23 20 17 14 19 14 17 19 22 25 23 25 23 30 26 21 22 24 19 27 24 22 22 8 8 9 11 14 15 17 17 18 19 19 19 20 18 18 16 16
15 23 23 21 20 20 19 16 14 14 13 18 21 24 23 24 26 30 22 21 23 22 23 22 20 22 16 2 13 10 10 11 13 14 15 15 16 17 17 18 14 16 18 18
20 19 22 18 17 19 19 19 15 16 11 14 17 23 20 22 26 28 26 25 29 23 23 20 24 25 25 2 10 9 19 8 11 13 11 11 10 13 14 14 14 16 17 17
23 21 20 21 22 20 20 18 16 17 16 14 6 13 21 24 24 26 25 24 19 20 20 22 25 33 21 5 15 18 13 13 8 9 5 8 11 11 12 14 15 16 17 17
22 21 19 21 21 20 18 17 19 16 17 18 7 6 22 12 23 25 19 21 21 18 14 23 24 24 15 9 8 22 10 17 16 12 14 15 16 15 7 10 8 9 11 13
22 19 21 17 20 20 20 17 15 15 15 15 21 7 9 7 13 18 20 15 1 10 7 13 12 17 14 15 12 12 14 16 17 15 17 14 12 8 8 10 9 11 12 12
21 23 17 18 18 23 19 16 12 13 14 15 19 15 8 5 11 18 17 9 5 3 6 5 13 11 14 14 17 16 15 11 11 13 10 7 4 4 4 3 7 7 10 11
20 21 21 17 23 20 20 20 15 20 13 15 17 12 10 18 14 13 13 12 10 11 10 13 12 15 16 18 17 15 12 11 9 9 8 7 4 4 2 4 2 5 8 10
16 21 23 19 17 20 18 20 23 18 12 7 9 14 11 14 16 16 16 15 13 14 12 14 13 16 17 17 16 16 14 10 9 9 7 6 6 6 4 4 4 6 8 11
14 12 16 23 18 19 17 15 13 12 9 11 7 7 5 21 19 18 16 16 14 14 15 14 13 17 16 17 15 13 11 10 9 8 7 7 5 5 5 6 8 10 12 12
17 13 17 14 21 21 18 11 11 16 8 11 6 5 8 12 20 19 18 16 15 14 13 12 12 15 15 14 13 10 8 8 8 8 7 7 8 9 9 11 13 14 16 17
24 9 12 18 17 21 18 11 13 10 7 10 10 4 10 18 18 17 18 16 14 14 13 13 11 12 11 10 11 10 9 10 10 10 11 11 13 13 13 14 16 17 20 20
21 8 10 6 9 9 14 12 8 4 5 10 7 3 8 15 14 14 16 14 13 12 11 10 9 8 10 9 9 8 8 9 11 12 12 13 14 15 16 17 18 20 22 22
14 13 17 9 6 16 19 17 13 8 4 10 4 1 11 7 9 13 13 11 11 10 7 7 6 8 8 10 10 11 12 13 14 15 16 16 17 18 19 20 21 22 23 24
15 12 10 9 4 4 11 16 11 14 12 10 5 14 17 14 6 6 10 5 7 6 4 7 6 7 9 10 10 11 13 14 16 16 18 19 20 20 21 21 22 22 23 23
8 10 13 8 8 10 9 12 17 15 13 13 8 9 12 3 12 5 5 2 2 4 5 6 7 8 10 12 13 14 16 17 17 18 19 20 20 19 20 21 22 23 24 25
15 11 11 10 11 8 4 9 10 6 4 4 7 3 14 11 3 4 1 3 3 8 5 7 8 8 11 13 13 15 16 17 17 17 17 17 17 18 19 21 23 23 25 25
9 14 8 8 11 9 8 3 3 10 6 4 7 4 4 6 7 8 11 10 7 7 8 8 9 10 12 13 14 15 16 16 16 16 15 15 16 18 19 20 22 22 23 24
13 10 6 7 9 12 8 5 6 12 10 6 9 8 7 7 11 10 7 6 6 7 8 10 12 14 15 15 14 16 17 16 15 15 14 16 17 18 20 21 22 23 24 24
11 8 4 9 8 5 13 7 10 14 8 10 9 8 6 5 7 3 6 7 8 9 11 12 15 15 14 13 16 16 16 16 14 14 15 17 19 19 20 20 22 23 25 26
8 8 6 8 4 7 9 7 3 11 5 9 11 9 6 8 6 5 7 8 10 11 13 15 14 14 14 15 14 14 14 13 13 15 17 18 19 18 19 23 26 25 24 26
6 4 4 6 4 4 8 8 1 9 9 10 11 8 6 7 7 9 9 10 11 13 15 15 15 15 15 13 13 14 13 14 15 16 17 18 18 18 24 23 22 25 29 20
5 4 3 2 5 12 16 16 13 10 11 10 9 9 8 9 10 11 10 11 11 13 15 15 14 15 13 14 12 13 14 15 15 17 18 18 19 22 20 18 19 23 23 24
6 4 6 9 12 14 15 15 14 13 12 11 11 11 11 11 12 12 11 10 10 13 13 15 15 15 15 14 13 13 14 14 15 17 17 17 18 20 18 18 20 20 22 21
3 7 8 14 13 14 14 14 13 13 12 12 11 11 11 11 12 12 11 10 13 14 15 15 14 13 13 14 13 12 13 15 16 16 17 17 17 16 17 18 22 22 22 22
4 6 4 6 15 9 14 12 13 12 12 11 10 10 10 11 12 12 11 14 15 16 16 15 14 14 15 14 13 14 15 15 16 17 16 16 17 17 17 19 25 31 28 25
Wind_Direction
198 207 209 210 217 233 266 241 240 242 251 241 246 239 249 239 237 244 240 230 229 237 201 198 187 226 284 309 316 289 258 256 218 213 217 220 223 223 228 232 226 220 209 220
181 216 216 226 209 228 242 251 255 259 252 246 247 246 243 246 236 242 233 240 243 234 243 199 175 230 262 308 325 296 264 243 220 225 233 239 228 228 228 226 201 211 213 212
207 213 225 210 217 216 224 238 244 260 260 270 257 263 238 233 240 237 223 228 241 230 239 214 193 215 259 332 349 306 279 240 219 233 235 233 253 242 204 222 209 212 218 213
221 226 195 215 218 214 219 220 247 262 271 266 292 278 226 230 229 229 229 225 227 233 238 226 192 192 204 220 199 282 256 243 235 235 245 219 237 217 222 225 216 202 210 215
210 225 206 211 214 217 230 225 219 233 254 268 240 232 281 252 218 218 208 218 220 231 236 214 200 181 180 174 228 260 224 232 234 210 216 215 225 222 205 228 169 189 203 210
225 206 229 215 214 220 219 237 249 232 237 248 255 183 249 252 297 217 194 202 256 257 173 152 144 154 159 178 187 215 217 217 201 200 212 223 253 255 196 201 187 206 217 218
205 224 211 210 209 208 216 222 224 227 231 238 252 197 146 127 312 240 116 117 133 145 127 163 158 164 136 167 181 181 198 183 180 170 159 165 135 113 134 177 223 258 246 237
199 208 200 198 216 210 208 215 225 215 220 228 213 261 143 166 215 108 103 106 113 103 105 101 97 111 119 132 155 140 142 149 148 133 124 97 70 140 182 94 350 277 285 283
214 215 194 208 219 228 205 217 234 255 304 252 266 152 152 146 146 133 126 119 115 109 110 101 101 100 109 110 106 110 114 101 119 108 100 84 71 57 38 6 323 286 291 286
214 237 200 196 201 230 240 245 247 242 199 276 225 312 166 163 154 138 134 124 121 119 113 110 111 116 115 109 103 105 111 105 88 76 57 43 22 12 347 326 312 305 298 294
211 228 209 184 205 215 223 182 253 265 290 252 149 232 256 267 149 146 135 132 133 129 120 113 107 102 95 95 93 86 76 73 55 42 21 11 351 342 336 322 314 308 303 297
199 233 184 205 197 219 253 276 192 234 252 278 292 140 141 299 135 131 132 131 127 121 118 111 107 100 93 79 71 57 34 30 16 3 356 348 337 332 327 315 308 302 297 295
189 205 174 207 289 215 219 220 266 48 332 195 258 75 158 188 119 128 121 122 129 121 108 104 99 85 75 58 47 34 17 18 358 343 336 331 323 317 313 307 305 300 293 290
194 212 196 207 186 196 205 207 206 151 86 260 208 62 325 24 115 123 128 138 134 116 101 79 65 64 35 30 14 7 1 356 344 334 330 323 322 316 312 308 303 301 298 294
167 205 183 129 204 136 266 201 212 231 230 244 301 189 206 200 193 195 129 150 130 126 78 61 41 22 9 7 355 353 346 341 334 329 323 318 315 315 312 306 303 300 300 299
166 202 206 171 152 107 270 203 181 215 202 217 137 129 147 178 200 155 155 136 193 133 59 20 6 0 353 351 343 340 332 330 325 321 313 315 311 309 305 306 306 302 299 296
196 150 158 182 198 194 229 181 191 195 228 236 227 12 133 138 193 167 130 79 15 48 16 351 347 344 347 338 333 323 321 320 317 312 309 306 313 314 309 304 300 297 292 295
181 160 159 152 151 196 70 37 339 172 138 206 87 64 81 106 76 61 49 58 45 358 342 338 341 339 334 324 318 319 318 314 311 311 313 319 312 308 305 304 301 301 300 298
143 137 171 151 171 102 129 129 159 156 113 44 102 111 114 113 114 99 73 38 358 346 334 339 337 331 323 318 320 320 316 314 316 317 317 322 313 308 312 305 303 303 298 294
126 139 144 148 179 158 107 87 52 113 115 121 95 75 39 271 163 79 356 356 349 342 342 339 333 320 319 326 329 319 317 316 313 313 309 301 303 307 305 304 301 300 297 293
131 110 176 131 172 97 102 109 202 213 137 76 86 70 52 51 76 3 354 348 351 348 344 336 330 324 335 326 319 309 310 306 311 304 300 303 304 306 305 299 290 297 296 294
127 129 170 147 137 111 142 143 21 123 112 96 79 56 59 43 29 9 358 354 352 345 341 340 332 332 327 324 328 316 311 308 301 304 303 304 309 310 296 296 313 313 312 289
131 125 163 80 87 79 83 100 92 90 99 83 80 61 44 45 25 13 0 358 354 351 344 341 336 326 326 335 328 312 307 310 314 307 306 312 317 309 303 306 320 316 316 312
102 111 122 104 104 101 100 99 100 95 93 86 75 62 46 39 24 13 8 2 352 352 351 343 337 336 333 330 323 316 319 317 311 310 314 321 316 307 312 328 326 318 312 310
118 131 89 95 120 109 101 100 105 102 96 91 78 66 52 41 35 22 17 6 1 357 350 350 347 337 335 331 330 330 327 323 318 317 319 320 317 322 323 328 324 323 317 306
15 134 150 160 168 120 128 114 113 103 92 76 74 68 59 43 45 31 26 17 9 2 356 351 347 348 343 342 342 343 340 334 327 321 322 321 318 321 318 333 326 338 341 342